This is the latest recevied weather packets stored in our database for station/object FW0690. If no packets are shown the sender has not sent any weather packets the latest 10 day(s).
| Time | Temp. | Humidity | Pressure | Rain* | Wind** | Luminosity | Snow |
|---|---|---|---|---|---|---|---|
| 1777981120 | 29.44° C | 23% | 1012.9 hPa | - | - | 38 W/m² | - |
| 1777980760 | 29.44° C | 23% | 1012.9 hPa | - | - | 37 W/m² | - |
| 1777980400 | 30° C | 24% | 1013 hPa | - | - | 37 W/m² | - |
| 1777980040 | 28.33° C | 24% | 1013 hPa | - | - | 36 W/m² | - |
| 1777979680 | 27.78° C | 24% | 1013.1 hPa | - | - | 36 W/m² | - |
| 1777979320 | 27.78° C | 24% | 1013.1 hPa | - | - | 35 W/m² | - |
| 1777979320 | 27.78° C | 24% | 1013.1 hPa | - | - | 35 W/m² | - |
| 1777978960 | 28.33° C | 24% | 1013.1 hPa | - | - | 36 W/m² | - |
| 1777978600 | 28.33° C | 25% | 1013.1 hPa | - | - | 35 W/m² | - |
| 1777978240 | 27.78° C | 26% | 1013.2 hPa | - | - | 35 W/m² | - |
| 1777977880 | 27.78° C | 26% | 1013.3 hPa | - | - | 35 W/m² | - |
| 1777977520 | 26.67° C | 27% | 1013.3 hPa | - | - | 36 W/m² | - |
| 1777977160 | 26.67° C | 27% | 1013.4 hPa | - | - | 36 W/m² | - |
| 1777976800 | 26.67° C | 28% | 1013.3 hPa | - | - | 35 W/m² | - |
| 1777976440 | 26.11° C | 29% | 1013.4 hPa | - | - | 35 W/m² | - |
| 1777976080 | 26.11° C | 29% | 1013.4 hPa | - | - | 36 W/m² | - |
| 1777975720 | 25.56° C | 29% | 1013.5 hPa | - | - | 51 W/m² | - |
| 1777975360 | 25.56° C | 29% | 1013.6 hPa | - | - | 166 W/m² | - |
| 1777975360 | 25.56° C | 29% | 1013.6 hPa | - | - | 166 W/m² | - |
| 1777975000 | 26.67° C | 29% | 1013.6 hPa | - | - | 178 W/m² | - |
| 1777974639 | 26.67° C | 30% | 1013.7 hPa | - | - | 139 W/m² | - |
| 1777974279 | 26.11° C | 31% | 1013.7 hPa | - | - | 56 W/m² | - |
| 1777973920 | 25° C | 31% | 1013.8 hPa | - | - | 121 W/m² | - |
| 1777973560 | 25° C | 31% | 1013.9 hPa | - | - | 98 W/m² | - |
| 1777973199 | 24.44° C | 31% | 1013.9 hPa | - | - | 42 W/m² | - |
* Rain since midnight (hover to see other rain measurements)
** Current wind speed in m/s (hover to see current wind gust speed)